www.pogodaiklimat.ru

Погода и климат >> Архив погоды >> Антарктида >> Мак-Мердо


АРХИВ ПОГОДЫ на Мак-Мердо

Время (UTC), дата Ветер
(напр.,м/с)
 
Видим.   Явления Облачность Т
(С)
Тd
(С)
f
(%)
Тe
(С)
Тes
(С)
Комфортность P
(гПа)
Po
(гПа)
Тmin
(С)
Tmax
(С)
R
(мм)
R24
(мм)
S
(см)
06 11.07 нст 8 16 км {снег, туман} 10/10 1000 м
[]
-5.2 -10.2 68 -14 -14 тепло 983.0 978.9
12 11.07 Ю 13 4800 м слаб. снег {метель} туман 10/8 1500 м
[Sc Ac As]
-10.6 -13.3 80 -23 -23 тепло 986.6 982.4 -10.9 -3.6 0.0
18 11.07 ЮВ 9 16 км в посл. час снег 10/10 600 м
[]
-16.2 -20.1 72 -28 -28 по сезону 995.0 990.7
00 12.07 В 9 11 км в посл. час снег туман 10/10 600 м
[]
-15.3 -19.1 73 -27 -27 по сезону 999.6 995.3 -16.7 -10.9
06 12.07 ЮВ 7 6000 м слаб. снег туман 10/10 600 м
[]
-15.9 -19.5 74 -27 -27 по сезону 1002.9 998.5
12 12.07 штиль 0 11 км {снег} 4/4 750 м
[Sc]
-14.7 -19.5 67 -15 -15 тепло 1002.5 998.1 -16.4 -13.0 0.0
18 12.07 С 6 16 км в посл. час снег 10/10 300 м
[]
-10.6 -13.9 77 -19 -19 тепло 1000.8 996.4
00 13.07 нст 7 11 км слаб. снег 10/10 300 м
[]
-16.4 -20.0 74 -27 -27 по сезону 1002.6 998.2 -16.4 -9.7
06 13.07 В 8 9000 м {снег, туман} 10/10 300 м
[]
-19.0 -21.9 78 -31 -31 опасность
обморожения
1007.0 1002.6
12 13.07 ЮВ 8 11 км 5/5 450 м
[Sc]
-20.4 -24.7 68 -33 -33 опасность
обморожения
1010.0 1005.5 -21.6 -15.0 0.0
18 13.07 ЮВ 8 16 км 1/0
[]
-21.4 -29.1 50 1012.1
00 14.07 ЮВ 6 16 км 10/0
[]
-24.0 -31.7 49 -36 -36 опасность
обморожения
1012.6 1008.1 -24.0 -20.0
06 14.07 ЮВ 9 6000 м слаб. снег {туман} туман 9/9 600 м
[]
-21.4 -26.9 61 -35 -35 опасность
обморожения
1011.0 1006.5
12 14.07 ЮВ 8 11 км слаб. снег 10/10 1050 м
[Sc]
-22.1 -26.6 67 -35 -35 опасность
обморожения
1011.1 1006.6 -23.9 -21.0 0.0
18 14.07 нст 5 9000 м слаб. снег туман 10/10 1000 м
[]
-22.2 -26.7 67 -33 -33 опасность
обморожения
1012.2 1007.6
00 15.07 В 8 8000 м в посл. час снег 10/0 2000 м
[]
-21.6 -25.7 69 -35 -35 опасность
обморожения
1013.8 1009.3 -24.7 -21.0
06 15.07 ЮВ 9 16 км {снег, туман} ясно -21.1 -26.0 65 -34 -34 опасность
обморожения
1013.3 1008.7
12 15.07 ЮВ 10 3200 м слаб. снег {метель} туман 10/10 960 м
[Sc]
-24.6 -29.6 63 -40 -40 опасность
обморожения
1012.6 1008.0 -24.7 -20.7 0.0
18 15.07 ЮВ 6 12 км слаб. снег {туман} туман 10/10 600 м
[]
-22.6 -28.8 57 -34 -34 опасность
обморожения
1012.6 1008.1
00 16.07 ЮЗ 2 16 км мгла {снег, туман} 10/10 600 м
[]
-23.5 -27.9 67 -29 -29 по сезону 1012.4 1007.9 -25.6 -19.6
06 16.07 Ю 2 6000 м в посл. час снег {туман} 10/10 300 м
[]
-21.1 -25.0 71 -26 -26 по сезону 1010.0 1005.5
12 16.07 СВ 6 11 км слаб. снег 8/8 420 м
[Sc]
-19.8 -23.3 74 -31 -31 опасность
обморожения
1008.7 1004.2 -23.5 -18.2 0.0
18 16.07 нст 6 16 км {снег} 10/10 600 м
[]
-19.4 -23.6 69 1007.2
00 17.07 нст 2 6000 м слаб. снег {туман} туман 10/10 300 м
[]
-21.4 -24.7 75 -28 -28 по сезону 1005.0 1000.5 -22.2 -19.0
06 17.07 нст 1 12 км {снег} 10/10 300 м
[]
-21.4 -24.5 76 -25 -25 по сезону 1001.9 997.4
12 17.07 нст 2 11 км 9/0
[Ac trans]
-21.1 -24.4 75 -26 -26 по сезону 1000.8 996.3 -23.7 -20.0 0.0
18 17.07 ЮВ 8 6000 м мгла {снег, туман} туман 4/4 100 м
[]
-27.8 -32.1 67 -42 -42 опасность
обморожения
1002.4 997.8
00 18.07 В 9 11 км {туман} 10/10 600 м
[]
-28.4 -34.3 57 -44 -44 опасность
обморожения
1002.4 997.8 -30.4 -21.4

 

Местоположение метеостанции Мак-Мердо (Антарктида): широта -77.85 долгота 166.66 высота над уровнем моря 24 м.

В архиве по умолчанию представлена погода на Мак-Мердо за последнюю неделю. Архивные данные за месяц целиком и за предыдущие месяцы, начиная с января 2011 года, Вы можете получить, выбрав интересующий диапазон дат из раскрывающегося списка и нажав кнопку "Ввод!".


*Определитесь, кто Вы:
робот инопланетянин человек

Внимание! Время в таблицах - всемирное. Для получения местного времени необходимо прибавить поправку, которая равна 0 ч.

Смотрите также архив погоды в соседних городах и на ближайших метеорологических станциях:

Погода на Pegasus North (Антарктида) (12 км)
Погода на Linda (Антарктида) (78 км)
Погода на Minna Bluff (Антарктида) (78 км)
Погода на Marble Point (Антарктида) (84 км)
Погода на Ferrell (Антарктида) (97 км)
Погода на Cape Ross (Антарктида) (156 км)
Погода на Marilyn (Антарктида) (236 км)
Погода на Schwerdtfeger (Антарктида) (236 км)
Погода на Manuela (Антарктида) (333 км)
Погода на Baia Terra Nova (Антарктида) (357 км)

Пояснения к столбцам:

Ветер - указаны скорость ветра в м/с - средняя за 10 мин, порывы в срок и между сроками (в фигурных скобках) и направление, откуда дует ветер: С - северный, СВ - северо-восточный, В - восточный, ЮВ - юго-восточный, Ю - южный, ЮЗ - юго-западный, З - западный, СЗ - северо-западный.
Видимость - горизонтальная дальность видимости в метрах или километрах. При видимости от 1 до 10 км при отсутствии осадков обычно наблюдается дымка, при ухудшении видимости до 1 км и менее - туман. В сухую погоду видимость может ухудшаться дымом, пылью или мглою.
Явления - указаны атмосферные явления, наблюдавшиеся в срок или в последний час перед сроком; фигурными скобками обозначены явления, наблюдавшиеся между сроками (за 1-3 часа до срока); квадратными скобками обозначены град или гололедные отложения с указанием их диаметра в мм.
Облачность - указаны через наклонную черту общая и нижняя облачность в баллах и высота нижней границы облаков в метрах; квадратными скобками обозначены формы облаков: Ci - перистые, Cs - перисто-слоистые, Cc - перисто-кучевые, Ac - высококучевые, As - высокослоистые, Sc - слоисто-кучевые, Ns - слоисто-дождевые, Cu - кучевые, Cb - кучево-дождевые. Подробнее классификацию облаков см. в Атласе облаков (PDF).
T - Температура воздуха - температура, измеренная на высоте 2 м над землей.
Td - Температура точки росы - температура, при понижении до которой содержащийся в воздухе водяной пар достигнет насыщения.
f - Относительная влажность воздуха - влажноcть воздуха, измеренная на высоте 2 м над землей.
Te - Эффективная температура - температура, которую ощущает одетый по сезону человек в тени. Характеристика душности погоды. При расчете учитывается влияние влажности воздуха и скорости ветра на теплоощущения человека.
Tes - Эффективная температура на солнце - температура, которую ощущает человек, с поправкой на солнечный нагрев. Характеристика знойности погоды. Зависит от высоты солнца над горизонтом, облачности и скорости ветра. Ночью, в пасмурную погоду, а также при ветре 12 м/с и более поправка равна нулю.
P - Атмосферное давление - приведенное к уровню моря атмосферное давление.
Po - Атмосферное давление - измеренное на уровне метеостанции атмосферное давление.
Tmin - Минимальная температура - минимум температуры воздуха на высоте 2 м над землей.
Tmax - Максимальная температура - максимум температуры воздуха на высоте 2 м над землей.
R - Количество осадков - Количество выпавших осадков за период времени, мм. При наведении курсора мыши на число - период времени, за который выпало указанное количество осадков.
R24 - Количество осадков - Количество выпавших осадков за 24 часа, мм.
S - Снежный покров - Высота снежного покрова, см. При наведении курсора мыши на число - состояние снежного покрова и степень покрытия местности в баллах.